This is the latest recevied weather packets stored in our database for station/object WS2Z. If no packets are shown the sender has not sent any weather packets the latest 10 day(s).
| Time | Temp. | Humidity | Pressure | Rain* | Wind** | Luminosity | Snow |
|---|---|---|---|---|---|---|---|
| 1777321788 | 28.89° C | 70% | 1014.3 hPa | 0 mm | - | 122 W/m² | - |
| 1777321485 | 28.89° C | 67% | 1014.3 hPa | 0 mm | - | 159 W/m² | - |
| 1777321183 | 28.89° C | 66% | 1014.3 hPa | 0 mm | - | 130 W/m² | - |
| 1777320880 | 28.89° C | 66% | 1014.3 hPa | 0 mm | - | 129 W/m² | - |
| 1777320577 | 28.89° C | 67% | 1014.3 hPa | 0 mm | - | 119 W/m² | - |
| 1777320275 | 28.89° C | 68% | 1014.3 hPa | 0 mm | - | 190 W/m² | - |
| 1777319971 | 28.89° C | 67% | 1014.5 hPa | 0 mm | - | 524 W/m² | - |
| 1777319668 | 28.89° C | 68% | 1014.3 hPa | 0 mm | - | 145 W/m² | - |
| 1777319365 | 28.89° C | 68% | 1014.3 hPa | 0 mm | - | 157 W/m² | - |
| 1777319062 | 29.44° C | 66% | 1014.2 hPa | 0 mm | - | 172 W/m² | - |
| 1777318759 | 31.11° C | 62% | 1014.6 hPa | 0 mm | - | 148 W/m² | - |
| 1777318455 | 31.67° C | 46% | 1014.4 hPa | 0 mm | - | 129 W/m² | - |
| 1777318152 | 31.11° C | 46% | 1014.4 hPa | 0 mm | - | 152 W/m² | - |
| 1777317849 | 31.11° C | 47% | 1014.7 hPa | 0 mm | - | 194 W/m² | - |
| 1777317546 | 31.67° C | 46% | 1014.5 hPa | 0 mm | - | 107 W/m² | - |
| 1777317243 | 33.33° C | 43% | 1014.5 hPa | 0 mm | - | 115 W/m² | - |
| 1777316938 | 33.33° C | 43% | 1014.6 hPa | 0 mm | - | 803 W/m² | - |
| 1777316635 | 32.78° C | 47% | 1014.8 hPa | 0 mm | - | 795 W/m² | - |
| 1777316332 | 32.78° C | 45% | 1014.7 hPa | 0 mm | - | 821 W/m² | - |
| 1777316029 | 32.22° C | 51% | 1014.7 hPa | 0 mm | - | 820 W/m² | - |
| 1777315729 | 32.78° C | 47% | 1014.7 hPa | 0 mm | - | 209 W/m² | - |
| 1777315425 | 31.67° C | 47% | 1014.7 hPa | 0 mm | - | 842 W/m² | - |
| 1777315123 | 31.67° C | 48% | 1014.7 hPa | 0 mm | - | 155 W/m² | - |
| 1777314818 | 31.67° C | 48% | 1014.7 hPa | 0 mm | - | 863 W/m² | - |
| 1777314516 | 32.22° C | 47% | 1014.7 hPa | 0 mm | - | 438 W/m² | - |
* Rain latest hour (hover to see other rain measurements)
** Current wind speed in m/s (hover to see current wind gust speed)